Location: C�mpuri de-Sus
(45.9500°N, 22.5500°E)
Time: 04:31:26
(UTC+00:00)

Cosmos 1825 - Pass Details

Date: 24 October 2021
Orbit: 501 x 504 km, 82.5° (Epoch: 30 November)

Event Time Altitude Azimuth Distance (km) Brightness Sun altitude
Rises 17:56:07 0° 347° (NNW) 2,608 6.1 -26.3°
Reaches altitude 10° 17:58:16 10° 344° (NNW) 1,719 5.1 -26.7°
Enters shadow 17:59:42 22° 338° (NNW) 1,153 4.2 -26.9°
